Date,TemperatureHighF,TemperatureAvgF,TemperatureLowF,DewpointHighF,DewpointAvgF,DewpointLowF,HumidityHigh,HumidityAvg,HumidityLow,PressureMaxIn,PressureMinIn,WindSpeedMaxMPH,WindSpeedAvgMPH,GustSpeedMaxMPH,PrecipitationSumIn
2013-1-1,13.8,2.9,-11.2,5.5,-11.6,-25.8,69,50,47,28.91,28.73,9,4,13,0.00
2013-1-2,25.3,14.1,2.8,22.1,6.0,-4.9,90,70,49,28.79,28.64,8,5,11,0.00
2013-1-3,19.0,9.6,5.2,10.2,0.6,-3.6,70,66,65,28.94,28.79,9,6,13,0.00
2013-1-4,25.5,18.2,10.4,11.3,8.3,5.0,80,66,50,28.85,28.76,10,4,15,0.00
2013-1-5,32.0,16.4,7.5,16.0,8.2,0.3,80,70,49,28.79,28.55,11,5,17,0.00
2013-1-6,19.0,12.1,7.0,9.1,2.1,-0.8,78,64,54,28.88,28.67,11,5,15,0.00
2013-1-7,35.4,24.3,12.0,22.1,15.3,7.9,91,69,52,28.79,28.64,16,8,24,0.00
2013-1-8,35.2,22.9,9.7,28.2,17.7,7.2,89,81,67,28.67,28.50,14,6,20,0.00
2013-1-9,35.6,29.0,22.1,23.9,20.1,16.3,88,70,51,29.03,28.64,13,6,19,0.00
2013-1-10,36.9,31.2,22.8,34.0,23.5,16.9,98,75,44,29.03,28.47,15,10,22,0.16
2013-1-11,39.9,36.5,34.2,39.4,36.0,33.6,98,98,98,28.44,28.17,12,8,17,0.00
2013-1-12,37.4,18.0,7.5,36.9,10.0,-1.7,98,71,56,28.76,28.17,18,8,32,0.00
2013-1-13,10.8,6.0,2.3,1.4,-3.2,-6.7,65,65,65,28.91,28.70,6,4,11,0.00
2013-1-14,22.5,11.4,3.2,9.1,1.9,-5.8,72,65,53,29.06,28.91,7,4,11,0.00
2013-1-15,32.0,19.7,9.5,15.6,9.4,1.9,75,64,42,29.00,28.64,14,8,20,0.00
2013-1-16,39.6,27.5,16.2,34.9,21.2,7.0,98,77,60,28.88,28.44,15,9,22,0.00
2013-1-17,25.7,16.4,6.6,14.7,6.9,-1.7,81,66,45,29.06,28.88,6,3,10,0.00
2013-1-18,44.1,33.0,21.0,30.4,24.9,14.4,90,73,52,28.97,28.47,18,10,26,0.00
2013-1-19,42.1,28.3,4.5,31.6,20.7,-8.1,94,73,54,28.85,28.44,12,6,24,0.00
2013-1-20,12.0,5.5,0.5,-0.9,-7.1,-11.7,55,55,55,29.03,28.85,8,5,13,0.00
2013-1-21,2.5,-3.6,-10.3,-9.9,-15.7,-22.0,55,55,55,28.97,28.91,8,6,14,0.00
2013-1-22,9.3,0.8,-6.9,-3.5,-11.5,-18.8,55,55,55,29.03,28.88,7,2,10,0.00
2013-1-23,18.5,9.9,-1.8,9.1,-2.0,-13.7,76,58,53,29.17,28.79,11,7,17,0.00
2013-1-24,15.3,5.6,-3.5,1.2,-7.3,-15.2,56,54,37,29.26,28.85,13,9,21,0.00
2013-1-25,24.3,13.4,3.2,12.4,-0.4,-12.5,71,54,37,28.94,28.67,12,7,19,0.00
2013-1-26,26.1,13.8,-0.4,6.6,-3.8,-15.7,50,45,41,28.97,28.79,15,8,24,0.00
2013-1-27,32.4,29.7,23.9,31.8,22.6,7.0,98,78,44,28.79,28.50,16,6,23,0.04
2013-1-28,35.8,32.4,30.4,35.2,31.8,29.8,98,98,98,28.58,28.29,0,0,0,0.00
2013-1-29,36.5,33.4,28.8,36.0,32.2,23.4,98,96,80,28.38,28.23,9,3,15,0.00
2013-1-30,28.8,18.7,7.5,24.1,11.8,0.1,88,74,61,28.44,28.23,0,0,0,0.00
2013-1-31,7.9,-1.0,-7.4,0.0,-8.1,-14.3,71,71,71,28.91,28.44,8,2,14,0.00
2013-2-1,10.8,0.8,-9.6,3.2,-6.4,-16.4,71,71,71,28.94,28.67,12,7,16,0.00
2013-2-2,14.9,10.8,6.3,10.8,1.4,-1.3,86,66,50,28.82,28.58,8,5,13,0.00
2013-2-3,19.6,14.5,6.8,17.4,7.3,0.0,91,73,56,28.76,28.52,8,5,12,0.00
2013-2-4,17.2,12.5,7.2,13.3,5.3,-4.7,85,73,54,28.70,28.52,10,6,18,0.00
2013-2-5,32.7,23.5,16.3,27.5,18.7,11.8,96,82,65,28.76,28.41,12,6,17,0.00
2013-2-6,35.2,26.2,14.2,32.2,21.7,12.7,96,83,62,28.76,28.58,15,7,23,0.00
2013-2-7,32.7,27.0,22.1,32.2,25.3,17.2,98,93,79,28.88,28.61,9,6,15,0.00
2013-2-8,29.3,25.4,23.0,20.7,17.7,14.7,81,72,56,29.00,28.88,14,6,20,0.00
2013-2-9,31.5,28.1,25.7,27.5,24.1,19.9,94,85,78,28.91,28.58,19,15,26,0.00
2013-2-10,37.6,33.2,29.5,37.0,32.4,26.8,98,97,89,28.61,27.96,17,11,25,0.28
2013-2-11,31.3,24.0,19.9,30.7,19.6,10.4,98,84,63,28.73,28.05,12,8,21,0.00
2013-2-12,37.0,27.4,19.2,27.9,19.2,10.4,91,72,51,28.76,28.50,12,6,19,0.00
2013-2-13,42.1,31.3,21.0,34.0,25.0,18.0,95,78,52,28.52,28.29,11,4,18,0.00
2013-2-14,35.6,29.7,16.9,31.6,20.8,3.9,96,70,45,28.82,28.29,10,6,17,0.00
2013-2-15,19.9,14.0,9.1,5.5,0.1,-4.2,62,53,44,28.94,28.82,8,5,14,0.00
2013-2-16,27.1,16.7,9.3,12.9,3.7,-5.4,80,57,44,28.91,28.76,7,3,10,0.00
2013-2-17,31.5,19.9,14.0,17.4,11.4,8.1,81,70,54,28.76,28.35,17,11,26,0.00
2013-2-18,34.3,22.6,4.1,30.7,14.4,-4.4,94,71,55,28.47,28.26,17,8,24,0.00
2013-2-19,7.3,1.2,-3.5,-1.3,-7.2,-11.6,67,67,67,28.97,28.50,12,8,19,0.00
2013-2-20,19.9,6.7,-5.1,5.9,-4.0,-13.2,67,61,43,29.09,28.97,9,4,15,0.00
2013-2-21,23.9,16.2,7.5,16.2,3.8,-3.5,88,58,44,29.03,28.64,9,6,18,0.00
2013-2-22,31.6,22.3,17.4,31.1,20.2,14.0,98,91,86,28.64,28.52,10,5,15,0.04
2013-2-23,28.2,17.0,2.3,25.9,12.1,-2.4,93,81,58,28.61,28.52,8,2,13,0.00
2013-2-24,34.5,23.5,-0.6,25.5,17.6,-5.3,96,78,47,28.76,28.67,5,2,8,0.00
2013-2-25,35.8,27.8,18.7,31.1,24.0,16.5,98,86,61,28.79,28.67,5,2,7,0.08
2013-2-26,35.1,27.5,20.5,21.9,20.2,18.3,98,75,53,28.67,28.50,14,8,28,0.00
2013-2-27,35.2,30.3,26.2,23.2,19.9,17.8,79,65,52,28.64,28.47,12,8,17,0.00
2013-2-28,29.8,26.2,20.3,20.3,16.1,11.8,80,66,49,28.85,28.64,10,6,17,0.00
2013-3-1,28.8,21.4,7.5,13.3,8.9,-0.4,69,59,42,29.00,28.82,10,6,18,0.00
2013-3-2,27.1,15.1,2.7,10.4,3.6,-5.1,81,60,44,28.97,28.82,4,1,7,0.00
2013-3-3,34.7,24.0,16.7,10.6,7.7,5.0,70,50,32,28.82,28.64,14,9,18,0.00
2013-3-4,28.9,25.1,21.9,26.6,20.8,6.3,95,84,45,28.70,28.58,21,14,29,0.00
2013-3-5,31.3,26.3,23.2,25.5,20.6,15.6,95,80,55,28.94,28.61,8,5,15,0.16
2013-3-6,27.3,17.9,-2.6,16.9,7.3,-11.9,86,63,46,29.06,28.91,8,4,13,0.00
2013-3-7,32.7,14.4,-2.9,14.5,3.4,-12.3,79,62,42,29.03,28.94,12,6,16,0.00
2013-3-8,38.7,27.3,13.1,28.9,19.0,9.5,86,72,51,28.97,28.76,16,10,21,0.00
2013-3-9,35.4,34.4,33.3,34.9,33.4,28.9,98,96,84,28.76,28.41,17,11,24,0.72
2013-3-10,35.1,33.3,30.0,34.5,31.5,28.6,98,93,81,28.55,28.41,17,11,28,0.12
2013-3-11,30.2,26.1,18.5,29.3,21.6,9.1,98,84,59,28.55,28.41,13,7,19,0.00
2013-3-12,27.7,23.2,17.4,22.5,13.4,7.9,81,66,52,28.82,28.52,9,5,16,0.00
2013-3-13,30.2,19.1,10.2,13.5,8.2,2.5,78,63,42,29.03,28.82,7,4,10,0.00
2013-3-14,43.7,29.5,19.2,24.8,18.9,12.4,89,66,40,28.94,28.70,11,7,17,0.08
2013-3-15,39.7,33.0,25.9,32.5,28.0,21.9,98,83,57,28.73,28.47,8,3,12,0.00
2013-3-16,32.9,24.9,16.2,32.4,16.5,4.8,98,72,49,28.88,28.50,6,0,9,0.00
2013-3-17,29.7,21.0,11.5,19.6,8.2,-1.1,68,58,45,28.88,28.55,20,5,28,0.00
2013-3-18,31.3,22.3,11.3,28.6,16.4,6.1,96,78,59,28.58,28.35,17,10,25,0.00
2013-3-19,21.9,13.1,7.2,12.2,2.6,-5.8,79,64,43,28.85,28.50,11,8,17,0.00
2013-3-20,18.5,11.7,6.1,1.2,-4.9,-9.8,49,46,43,28.88,28.73,10,8,20,0.00
2013-3-21,31.3,15.3,1.9,8.2,-2.0,-13.2,73,46,34,28.76,28.67,5,2,9,0.00
2013-3-22,34.3,20.9,7.9,14.0,6.3,1.0,73,55,32,28.76,28.70,5,1,9,0.00
2013-3-23,37.8,27.6,17.2,18.1,13.2,9.3,77,56,34,28.82,28.70,6,3,9,0.00
2013-3-24,34.3,28.2,24.6,21.9,19.1,16.9,84,69,52,28.79,28.58,10,6,16,0.00
2013-3-25,34.0,28.5,23.0,19.8,15.1,10.8,73,57,45,28.85,28.61,12,8,18,0.00
2013-3-26,37.0,27.7,19.9,21.0,17.7,13.5,81,67,47,28.94,28.82,6,3,9,0.00
2013-3-27,46.0,32.7,22.6,28.4,19.3,11.8,98,63,29,28.97,28.88,5,2,8,0.00
2013-3-28,45.0,34.4,25.7,26.6,21.0,15.3,79,59,39,29.00,28.88,8,4,11,0.00
2013-3-29,52.7,40.1,30.2,33.1,26.7,19.8,77,60,41,28.91,28.73,11,7,15,0.00
2013-3-30,51.6,42.4,34.2,46.8,35.2,28.0,98,76,55,28.76,28.52,12,6,17,0.04
2013-3-31,38.8,33.6,25.3,33.8,24.9,10.2,98,73,41,28.70,28.47,9,6,17,0.00
2013-4-1,34.3,26.7,19.4,18.5,12.3,8.2,68,55,40,28.88,28.70,8,6,14,0.00
2013-4-2,38.7,29.1,21.9,18.5,16.0,11.3,83,60,33,28.97,28.79,7,4,13,0.00
2013-4-3,47.7,34.3,22.5,23.2,18.7,11.8,89,56,31,29.00,28.79,15,7,22,0.00
2013-4-4,54.5,40.4,33.3,34.0,25.1,18.7,75,55,36,28.82,28.67,13,7,18,0.00
2013-4-5,43.9,36.7,26.4,27.0,22.8,16.3,90,59,39,28.82,28.52,16,8,25,0.00
2013-4-6,61.2,44.6,36.9,46.0,32.1,21.6,96,63,40,28.58,28.20,17,11,26,0.04
2013-4-7,54.0,42.3,33.4,41.5,33.6,26.8,98,74,42,28.61,28.41,11,5,16,0.04
2013-4-8,58.6,48.8,40.6,48.9,43.4,38.5,98,83,55,28.61,28.29,14,6,24,0.16
2013-4-9,40.5,38.6,35.8,38.8,36.5,34.3,98,92,84,28.76,28.47,20,13,33,1.12
2013-4-10,35.8,33.4,31.6,34.9,30.1,26.4,98,88,75,28.70,28.47,20,9,38,0.16
2013-4-11,36.9,33.9,31.8,36.3,32.3,26.8,98,94,75,28.47,28.26,9,5,15,0.32
2013-4-12,34.0,31.1,28.0,31.3,26.2,21.0,98,83,60,28.50,28.23,9,5,13,0.00
2013-4-13,48.6,34.0,27.9,26.6,22.4,17.8,87,64,29,28.55,28.47,6,4,16,0.00
2013-4-14,47.8,37.1,32.4,47.3,32.5,19.9,98,84,58,28.50,28.05,21,8,28,0.28
2013-4-15,42.6,36.4,32.5,34.3,24.6,19.8,83,62,49,28.52,28.20,20,10,31,0.00
2013-4-16,53.6,39.2,30.2,28.0,23.6,18.3,74,55,28,28.76,28.50,7,5,13,0.00
2013-4-17,38.8,32.9,34.7,37.0,14.5,-99.9,98,76,54,28.73,28.17,13,6,20,0.56
2013-4-18,36.1,16.6,31.1,35.6,-35.3,-99.9,98,97,87,28.29,27.90,13,8,22,0.20
2013-4-19,36.9,32.1,29.5,27.1,22.4,18.3,87,68,49,28.38,27.88,9,7,17,0.00
2013-4-20,51.6,35.8,24.1,21.4,15.4,9.3,78,46,21,28.61,28.35,8,4,12,0.00
2013-4-21,59.9,45.4,33.3,48.0,34.8,16.5,98,69,39,28.58,28.32,22,13,29,0.40
2013-4-22,44.8,38.7,32.4,42.3,37.8,31.8,98,97,85,28.41,28.23,12,6,22,0.68
2013-4-23,43.5,34.3,30.0,31.8,24.4,15.3,98,69,38,28.32,28.23,9,7,17,0.00
2013-4-24,55.6,38.9,24.8,36.1,25.1,19.2,91,62,27,28.23,28.08,18,6,34,0.00
2013-4-25,61.0,42.0,28.9,30.2,21.9,16.3,79,48,21,28.35,28.14,11,6,17,0.00
2013-4-26,78.4,58.9,42.4,42.3,30.9,23.2,65,38,18,28.23,28.11,23,11,33,0.00
2013-4-27,75.7,58.6,42.8,45.0,39.4,31.6,98,56,22,28.23,28.02,11,8,17,0.00
2013-4-28,81.5,62.2,44.4,43.5,38.2,32.5,84,47,20,28.02,27.76,15,9,23,0.00
2013-4-29,77.7,63.7,50.5,56.3,46.8,41.5,98,59,29,27.85,27.58,12,5,18,0.08
2013-4-30,76.1,64.7,51.1,54.3,44.1,28.6,96,53,21,27.96,27.52,18,8,26,0.36
2013-5-1,51.6,40.6,33.1,50.0,36.4,31.1,98,85,63,28.38,27.93,11,9,18,0.52
2013-5-2,38.1,34.4,32.9,33.4,29.5,22.8,98,83,55,28.41,28.29,13,7,18,0.48
2013-5-3,34.9,32.7,30.9,32.0,29.5,26.6,98,88,74,28.29,27.99,13,8,22,0.20
2013-5-5,52.7,50.0,48.0,48.7,47.8,46.4,95,92,84,27.99,27.96,0,0,0,0.00
2013-5-6,77.9,65.0,45.7,48.7,42.7,35.1,98,49,22,27.96,27.88,0,0,0,0.00
2013-5-7,81.7,63.5,45.0,50.9,42.5,35.6,96,52,20,27.90,27.82,0,0,0,0.00
2013-5-8,82.4,63.8,51.4,56.3,45.3,35.2,94,56,20,27.82,27.76,0,0,0,0.00
2013-5-9,58.1,54.6,46.2,57.4,52.8,44.4,98,94,86,27.79,27.67,10,4,12,0.20
2013-5-10,70.9,53.1,39.9,45.1,36.3,25.9,96,58,23,27.82,27.70,10,7,13,0.00
2013-5-11,56.1,48.3,37.4,39.2,24.1,13.5,70,41,20,27.90,27.67,11,10,22,0.00
2013-5-12,62.6,45.7,30.9,21.9,18.4,12.2,68,37,16,27.88,27.73,10,3,13,0.00
2013-5-13,77.4,57.0,38.8,38.7,26.2,15.8,45,32,21,27.76,27.43,18,10,27,0.00
2013-5-14,100.6,76.0,52.7,43.3,35.4,18.3,64,29,11,27.43,27.23,21,10,32,0.00
2013-5-15,86.2,66.5,53.1,37.8,33.3,21.2,55,31,16,27.61,27.37,7,5,13,0.00
2013-5-16,88.7,71.0,51.1,59.5,35.1,27.0,84,32,13,27.52,27.40,7,4,13,0.00
2013-5-17,67.5,60.2,53.8,62.2,56.5,50.7,98,88,64,27.49,27.40,14,10,17,0.47
2013-5-18,85.3,70.0,56.5,57.0,52.9,48.2,87,58,29,27.43,27.31,11,9,18,0.00
2013-5-19,83.8,69.9,63.1,65.5,59.2,50.7,98,71,33,27.31,27.05,22,10,35,0.24
2013-5-20,63.1,20.2,60.4,99.9,53.6,-99.9,98,69,31,27.11,26.96,18,9,27,0.59
2013-5-21,-200.0,0.0,200.0,99.9,-4.0,-99.9,98,69,41,26.99,26.99,12,6,18,0.04
2013-5-22,-200.0,0.0,200.0,-99.9,-99.9,-99.9,98,89,70,26.99,26.99,9,4,14,0.04
2013-5-23,-200.0,0.0,200.0,99.9,42.8,-99.9,91,51,23,26.99,26.99,11,8,21,0.00
2013-5-24,70.2,24.0,52.9,99.9,75.1,29.8,79,44,24,29.00,26.99,13,7,22,0.16
2013-5-25,55.8,52.7,50.4,47.5,42.9,37.9,86,69,58,28.97,28.91,18,12,27,0.04
2013-5-26,53.4,49.0,46.4,50.7,43.1,37.6,95,81,65,28.91,28.76,20,13,28,0.60
2013-5-27,57.4,55.2,52.9,56.8,54.5,51.1,98,97,90,28.76,28.52,14,9,20,0.64
2013-5-28,66.9,60.0,55.2,62.1,57.6,54.7,98,92,73,28.52,28.41,8,5,11,0.00
2013-5-29,78.8,66.0,58.3,65.7,60.9,57.0,98,86,52,28.55,28.44,14,7,19,0.08
2013-5-30,77.0,68.2,62.8,64.0,58.4,52.0,95,72,42,28.44,28.32,18,13,26,0.04
2013-5-31,80.1,68.2,59.0,59.4,51.0,36.1,93,60,22,28.41,28.32,22,14,30,0.04
2013-6-1,72.7,62.1,52.0,59.2,49.7,41.4,95,66,35,28.61,28.32,7,4,15,0.04
2013-6-2,72.0,56.9,46.4,43.3,35.7,28.2,75,48,22,28.79,28.64,7,4,15,0.00
2013-6-3,71.6,61.3,46.2,43.3,36.9,30.6,86,44,23,28.79,28.70,12,4,17,0.00
2013-6-4,60.4,57.5,53.4,54.3,47.7,39.9,98,72,47,28.79,28.73,19,12,26,0.24
2013-6-5,67.8,60.5,55.6,59.0,52.9,46.8,98,78,49,28.73,28.67,4,1,8,0.00
2013-6-6,63.0,57.7,54.1,55.8,49.0,44.8,96,73,54,28.73,28.64,5,3,10,0.00
2013-6-7,68.9,59.7,50.0,53.8,45.2,37.9,94,61,34,28.76,28.67,5,2,11,0.00
2013-6-8,66.4,63.1,52.5,57.2,49.0,43.0,96,62,44,28.67,28.61,0,0,13,0.39
2013-6-9,72.0,61.4,56.7,64.9,53.1,46.2,98,75,47,28.61,28.47,14,9,21,0.24
2013-6-10,85.5,65.4,54.1,61.7,55.4,46.2,98,74,29,28.61,28.52,3,0,6,0.00
2013-6-11,97.0,79.9,63.3,63.7,54.8,45.9,80,45,19,28.64,28.55,4,2,10,0.00
2013-6-12,77.7,70.5,65.3,67.1,63.3,58.8,98,79,54,28.64,28.41,19,7,28,0.83
2013-6-13,-200.0,0.0,200.0,99.9,99.9,99.9,55,36,21,28.58,28.58,7,4,16,0.00
2013-6-14,-200.0,0.0,200.0,99.9,66.0,-99.9,79,51,33,28.82,28.58,15,9,22,0.00
2013-6-15,-200.0,0.0,200.0,99.9,-60.8,-99.9,98,83,47,28.67,28.64,13,8,16,0.00
2013-6-22,90.9,81.7,69.1,67.1,59.6,52.5,93,50,29,28.70,28.58,19,7,26,0.16
2013-6-23,83.3,73.2,68.0,69.6,60.3,51.8,96,67,34,28.67,28.50,15,10,23,0.08
2013-6-24,79.2,69.3,65.5,66.6,62.5,55.8,93,80,57,28.70,28.55,18,7,24,0.24
2013-6-25,87.1,75.0,66.2,71.2,62.2,56.3,91,68,37,28.61,28.50,11,8,16,0.04
2013-6-26,91.0,76.4,70.2,71.1,63.5,50.5,98,69,27,28.61,28.44,7,5,13,0.04
2013-6-27,88.5,75.9,67.3,58.3,49.6,37.4,73,43,19,28.64,28.55,6,2,11,0.00
2013-6-28,82.9,71.9,64.4,57.7,46.8,42.1,75,42,28,28.58,28.52,6,3,14,0.00
2013-6-29,73.4,65.7,60.3,61.7,53.0,41.2,95,66,35,28.70,28.50,12,6,28,0.20
2013-6-30,79.2,66.4,54.5,51.1,40.1,32.5,73,42,20,28.85,28.70,7,5,15,0.00
2013-7-1,81.7,71.1,57.0,49.1,42.1,34.3,73,39,20,28.91,28.85,5,2,13,0.00
2013-7-2,83.7,71.9,59.2,53.1,41.5,30.6,76,38,17,28.88,28.79,10,6,19,0.00
2013-7-3,88.7,73.2,58.1,55.8,43.1,35.8,85,38,18,28.82,28.70,5,4,9,0.00
2013-7-4,91.8,76.4,61.9,50.9,43.9,37.6,66,35,17,28.76,28.67,14,8,20,0.00
2013-7-5,90.0,77.9,64.2,48.6,45.0,40.3,56,33,19,28.70,28.64,16,14,23,0.00
2013-7-6,95.0,79.7,68.0,51.6,47.5,40.5,55,35,17,28.67,28.61,14,14,21,0.00
2013-7-7,93.6,82.8,72.0,62.8,52.8,48.7,70,37,22,28.64,28.58,14,13,16,0.00
2013-7-8,99.1,84.7,72.3,67.5,59.4,48.7,82,45,19,28.73,28.67,3,1,6,0.00
2013-7-9,91.9,79.4,69.6,69.1,62.3,52.2,90,59,28,28.70,28.61,11,3,20,0.08
2013-7-10,88.3,73.4,64.0,60.8,49.1,37.9,84,46,19,28.79,28.64,6,3,15,0.00
2013-7-11,92.1,74.0,58.5,54.9,45.2,36.1,78,42,17,28.85,28.76,9,4,15,0.00
2013-7-12,68.5,66.9,65.5,49.1,47.5,45.5,55,50,44,28.79,28.79,9,9,0,0.00
2013-7-13,75.0,67.8,60.8,61.7,54.5,47.3,98,66,38,28.88,28.73,21,11,28,2.05
2013-7-14,90.1,76.0,64.6,60.1,54.0,45.0,79,50,21,28.94,28.82,11,7,17,0.00
2013-7-15,95.4,78.0,65.1,65.1,57.7,50.7,81,54,26,29.00,28.91,7,4,15,0.00
2013-7-16,97.7,83.5,72.0,68.7,60.3,47.8,85,50,19,28.97,28.94,7,6,14,0.00
2013-7-17,98.6,84.1,72.0,66.4,59.6,49.1,80,48,19,29.03,28.88,8,4,13,0.00
2013-7-18,93.7,83.4,72.9,63.7,58.0,50.0,71,45,23,28.88,28.61,16,10,23,0.00
2013-7-19,92.7,79.2,67.5,66.2,55.6,42.6,79,47,18,28.64,28.55,12,4,17,0.00
2013-7-20,88.0,73.4,63.9,59.9,55.4,47.5,79,56,28,28.70,28.64,4,0,6,0.00
2013-7-21,88.9,72.9,65.5,62.1,56.7,45.3,81,60,23,28.67,28.58,10,4,18,0.00
2013-7-22,93.0,76.3,64.2,64.9,57.3,47.1,97,56,22,28.61,28.47,12,6,20,0.00
2013-7-23,80.6,67.9,57.9,54.7,45.7,35.1,85,49,21,28.76,28.58,8,4,14,0.00
2013-7-24,80.4,67.2,54.3,49.8,45.3,37.0,82,49,24,28.82,28.73,5,2,9,0.00
2013-7-25,87.4,67.3,59.9,65.3,55.4,46.8,98,69,29,28.76,28.67,14,6,22,0.32
2013-7-26,73.2,66.0,56.7,64.2,50.2,39.2,98,61,32,28.79,28.67,8,4,13,0.00
2013-7-27,66.6,57.7,48.2,48.7,40.3,33.1,86,55,33,28.79,28.67,4,2,12,0.00
2013-7-28,80.4,61.0,46.9,45.5,40.7,34.2,86,51,21,28.79,28.67,3,1,8,0.00
2013-7-29,61.7,53.8,49.5,48.6,45.5,39.7,88,74,55,28.85,28.79,1,0,6,0.00
2013-8-5,64.4,62.5,60.8,63.9,61.9,60.3,98,98,98,28.70,28.67,10,2,12,0.08